SPACEBEE-7 (43816 NORAD) Tracking and Keplerian Element Data

This shows tracking and keplerian element data for the satellite.

Feedback or suggestion? Click here.




ElementValue
Catalog43816
NameSPACEBEE-7
Epoch Orbit382
Epoch Day1.39323478
Epoch Year2019
RAAN75.2729
Inclination97.7656
Eccentricity0.001429
Argument of Perigee154.0626
Mean Anonmoly206.1314
Mean Motion14.95258615
Decay Rate2.52E-06
L11 43816U 18099BL 19001.39323478 .00000252 00000-0 28147-4 0 9994
L22 43816 97.7656 75.2729 0014290 154.0626 206.1314 14.95258615 3822

Live tracking and technical data element details for SPACEBEE-7 (NORAD 43816). SPACEBEE-7 can be tracked NOW for your location showing map with azimuth and elevation plus other details from your city location.

Track the satellite on the map from your city or location and see movement details for azimuth, elevation, latitude, longitude, range, height, and movement on the map or in text.







IsCatalogInMostPopularTable: catalog: 43816, numindb: 25
Update: records affected: 1



GetName: 43816 SPACEBEE-7

Hit Count: updated at: Fri, 18 Jan 2019 22:41:32 GMT